www.pogodaiklimat.ru
ПОГОДА в Мадисоне
Время
(UTC), дата
13:35 25.09
13:55 25.09
14:15 25.09
14:35 25.09
14:55 25.09
15:15 25.09
15:35 25.09
15:55 25.09
16:15 25.09
16:35 25.09
16:55 25.09
17:15 25.09
17:35 25.09
17:55 25.09
18:15 25.09
18:35 25.09
18:55 25.09
19:15 25.09
19:35 25.09
19:55 25.09
20:15 25.09
20:35 25.09
20:55 25.09
21:15 25.09
21:35 25.09
21:55 25.09
22:15 25.09
22:35 25.09
22:55 25.09
23:15 25.09
23:35 25.09
23:55 25.09
00:15 25.09
00:35 25.09
00:55 25.09
01:15 25.09
01:35 25.09
01:55 25.09
02:15 25.09
02:35 25.09
02:55 25.09
03:15 25.09
03:35 25.09
03:55 25.09
04:15 25.09
04:35 25.09
04:55 25.09
05:15 26.09
Ветер
(напр.,м/с)
Видим. Явления Облачность Т
(С)
Тd
(С)
f
(%)
Тe
(С)
Тes
(С)
Комфортность P
(гПа)
Po
(гПа)
Тmin
(С)
Tmax
(С)
R
(мм)
R24
(мм)
S
(см)
Ю 1 26 км ясно +20.0 +16.0 78 +23 +39 комфорт 965.5
Ю 1 26 км ясно +21.0 +16.0 73 +25 +41 комфорт 965.2
Ю 1 26 км ясно +23.0 +16.0 65 +27 +37 душно 965.2
ЮЗ 2 26 км ясно +24.0 +15.0 57 +27 +33 жарко 965.2
ЮЗ 2 26 км ясно +24.0 +15.0 57 +27 +32 жарко 965.2
З 2 26 км ясно +24.0 +16.0 61 +27 +30 жарко 965.2
З 2
{4}
26 км ясно +23.0 +16.0 65 +27 +30 душно 965.8
СЗ 3
{4}
26 км ясно +23.0 +16.0 65 +27 +29 душно 966.5
СЗ 3
{4}
26 км ясно +22.0 +15.0 64 +25 +26 комфорт 966.8
СЗ 2 26 км ясно +22.0 +15.0 64 +25 +26 комфорт 966.8
СЗ 2 26 км ясно +22.0 +15.0 64 +25 +26 комфорт 966.8
СЗ 2
{4}
26 км ясно +23.0 +15.0 61 +27 +27 душно 967.1
СЗ 3
{4}
26 км ясно +23.0 +14.0 57 +26 +26 жарко 967.1
СЗ 2
{4}
26 км ясно +23.0 +15.0 61 +27 +27 душно 967.1
СЗ 2 26 км ясно +24.0 +13.0 50 +26 +26 жарко 966.8
СЗ 3
{4}
26 км ясно +24.0 +12.0 47 +26 +26 жарко 966.8
СЗ 2 26 км ясно +24.0 +12.0 47 +26 +26 жарко 966.8
СЗ 2 26 км ясно +24.0 +11.0 44 +25 +25 комфорт 966.8
СЗ 2 26 км ясно +26.0 +10.0 37 +27 +27 жарко 966.8
З 3
{4}
26 км ясно +27.0 +8.0 30 +27 +27 жарко 966.8
СЗ 2
{3}
26 км ясно +27.0 +8.0 30 +27 +27 жарко 966.8
СЗ 2
{4}
26 км ясно +27.0 +6.0 26 +26 +26 жарко 967.1
СЗ 2
{4}
26 км ясно +27.0 +5.0 24 +26 +26 жарко 967.1
СЗ 2 26 км ясно +27.0 +6.0 26 +26 +26 жарко 967.1
З 2 26 км ясно +26.0 +6.0 28 +26 +26 жарко 967.4
СЗ 1 26 км ясно +25.0 +6.0 30 +25 +25 комфорт 967.4
З 1 26 км ясно +24.0 +5.0 29 +24 +24 комфорт 967.8
СЗ 1 26 км ясно +24.0 +5.0 29 +24 +24 комфорт 967.4
СЗ 1 26 км ясно +23.0 +6.0 33 +23 +23 комфорт 967.4
З 1 26 км ясно +22.0 +6.0 35 +23 +23 комфорт 967.4
З 1 18 км ясно +21.0 +6.0 38 +23 +23 комфорт 967.4
З 1 18 км ясно +21.0 +6.0 38 +22 +22 комфорт 967.4
З 1 18 км ясно +20.0 +6.0 40 +21 +21 комфорт 967.4
ЮЗ 1 18 км ясно +18.0 +7.0 49 +19 +19 967.4
ЮЗ 1 26 км ясно +18.0 +8.0 52 +19 +19 967.4
ЮЗ 1 26 км ясно +17.0 +8.0 55 +17 +17 967.8
ЮЗ 1 26 км ясно +18.0 +8.0 52 +18 +18 968.1
З 1 26 км ясно +18.0 +8.0 52 +19 +19 968.1
0 26 км ясно +17.0 +8.0 55 +17 +17 968.1
0 26 км ясно +17.0 +8.0 55 +17 +17 968.1
З 1 26 км ясно +16.0 +8.0 59 +16 +16 968.1
ЮЗ 1 26 км ясно +14.0 +8.0 67 +13 +13 968.4
ЮЗ 1 26 км ясно +16.0 +8.0 59 +16 +16 968.1
0 26 км ясно +14.0 +9.0 72 +14 +14 968.1
З 1 26 км ясно +15.0 +9.0 67 +15 +15 968.1
ЮЗ 1 26 км ясно +13.0 +8.0 72 +12 +12 967.8
Ю 1 26 км ясно +14.0 +8.0 67 +14 +14 967.8
0 26 км ясно +14.0 +9.0 72 +14 +14 967.4
Местоположение метеостанции Madison-Lac Qui Parle County Airport: широта 44.9839 долгота -96.1788 высота над уровнем моря 328 м.
В архиве по умолчанию представлена погода в Мадисоне за последние 1-2 суток. Обновление информации о фактической погоде в базе происходит ежечасно! Архивные данные за месяц целиком и за предыдущие месяцы Вы можете получить, выбрав интересующий диапазон дат из раскрывающегося списка и нажав кнопку "Ввод!".
Внимание! Архив погоды МЕТАР в базе сайта по станциям, не включенным в климатический монитор, хранится не более 60 дней. Нет смысла пытаться выбрать более раннюю дату.
*Определитесь, кто Вы:
Внимание! Время в таблицах - всемирное. Для получения местного времени необходимо прибавить поправку, которая равна ч.
Смотрите также архив погоды в соседних городах и на ближайших метеорологических станциях:
Партнеры нашего сайта:      
Пояснения к столбцам:
  • Ветер - указаны скорость ветра в м/с - средняя за 10 мин, порывы в срок и между сроками (в фигурных скобках) и направление, откуда дует ветер: С - северный,
  • СВ - северо-восточный, В - восточный, ЮВ - юго-восточный, Ю - южный, ЮЗ - юго-западный, З - западный, СЗ - северо-западный.
  • Видимость - горизонтальная дальность видимости в метрах или километрах. При видимости от 1 до 10 км при отсутствии осадков обычно наблюдается дымка, при ухудшении видимости до 1 км и менее - туман. В сухую погоду видимость может ухудшаться дымом, пылью или мглою.
  • Явления - указаны атмосферные явления, наблюдавшиеся в срок или в последний час перед сроком; фигурными скобками обозначены явления, наблюдавшиеся между сроками (за 1-3 часа до срока); квадратными скобками обозначены град или гололедные отложения с указанием их диаметра в мм.
  • Облачность - указаны через наклонную черту общая и нижняя облачность в баллах и высота нижней границы облаков в метрах; квадратными скобками обозначены формы облаков: Ci - перистые, Cs - перисто-слоистые, Cc - перисто-кучевые, Ac - высококучевые, As - высокослоистые, Sc - слоисто-кучевые, Ns - слоисто-дождевые, Cu - кучевые, Cb - кучево-дождевые. Подробнее классификацию облаков см. в Атласе облаков (PDF).
  • T - Температура воздуха - температура, измеренная на высоте 2 м над землей.
  • Td - Температура точки росы - температура, при понижении до которой содержащийся в воздухе водяной пар достигнет насыщения.
  • f - Относительная влажность воздуха - влажноcть воздуха, измеренная на высоте 2 м над землей.
  • Te - Эффективная температура - температура, которую ощущает одетый по сезону человек в тени. Характеристика душности погоды. При расчете учитывается влияние влажности воздуха и скорости ветра на теплоощущения человека.
  • Tes - Эффективная температура на солнце - температура, которую ощущает человек, с поправкой на солнечный нагрев. Характеристика знойности погоды. Зависит от высоты солнца над горизонтом, облачности и скорости ветра. Ночью, в пасмурную погоду, а также при ветре 12 м/с и более поправка равна нулю.
  • P - Атмосферное давление - приведенное к уровню моря атмосферное давление.
  • Po - Атмосферное давление - измеренное на уровне метеостанции атмосферное давление.
  • Tmin - Минимальная температура - минимум температуры воздуха на высоте 2 м над землей.
  • Tmax - Максимальная температура - максимум температуры воздуха на высоте 2 м над землей.
  • R - Количество осадков - Количество выпавших осадков за период времени, мм. При наведении курсора мыши на число - период времени, за который выпало указанное количество осадков.
  • R24 - Количество осадков - Количество выпавших осадков за 24 часа, мм.
  • S - Снежный покров - Высота снежного покрова, см. При наведении курсора мыши на число - состояние снежного покрова и степень покрытия местности в баллах.